• In Russia
  • List of Countries
  • For 7 days
  • Water Temperature
  • Satellite Maps
  • Weather Map
  • Weather Widgets
  • user-avatar
    Login

    Hourly Weather Sankt Polten

    Today, 22 May, Monday

    Time Temperature Precipitation Wind Pressure Humidity
    00:00 +10°C° 0 mm 1 mps 739 mmHg 93%
    01:00 +9°C° 0 mm 1 mps 739 mmHg 94%
    02:00 +9°C° 0 mm 1 mps 739 mmHg 94%
    03:00 +9°C° 0 mm 1 mps 738 mmHg 94%
    04:00 +9°C° 0 mm 1 mps 738 mmHg 93%
    05:00 +11°C° 0 mm 1 mps 738 mmHg 86%
    06:00 +14°C° 0 mm 1 mps 738 mmHg 78%
    07:00 +16°C° 0 mm 1 mps 738 mmHg 69%
    08:00 +19°C° 0 mm 1 mps 738 mmHg 63%
    09:00 +19°C° 0 mm 2 mps 738 mmHg 57%
    10:00 +21°C° 0 mm 2 mps 738 mmHg 51%
    11:00 +21°C° 0 mm 2 mps 738 mmHg 51%
    12:00 +23°C° 0 mm 2 mps 737 mmHg 51%
    13:00 +24°C° 0 mm 3 mps 737 mmHg 50%
    14:00 +24°C° 0.2 mm 3 mps 737 mmHg 54%
    15:00 +23°C° 0.2 mm 2 mps 737 mmHg 58%
    16:00 +23°C° 0.2 mm 2 mps 736 mmHg 62%
    17:00 +20°C° 0.1 mm 2 mps 736 mmHg 70%
    18:00 +20°C° 0.1 mm 1 mps 736 mmHg 79%
    19:00 +18°C° 0.1 mm 1 mps 736 mmHg 87%
    20:00 +16°C° 0.5 mm 1 mps 736 mmHg 90%
    21:00 +15°C° 0.5 mm 1 mps 736 mmHg 92%
    22:00 +14°C° 0.5 mm 1 mps 736 mmHg 95%
    23:00 +14°C° 0.5 mm 1 mps 736 mmHg 95%

    Tomorrow, 23 May, Tuesday

    Time Temperature Precipitation Wind Pressure Humidity
    00:00 +14°C° 0.5 mm 1 mps 736 mmHg 95%
    01:00 +14°C° 0.5 mm 1 mps 736 mmHg 95%
    02:00 +13°C° 0.3 mm 1 mps 736 mmHg 95%
    03:00 +12°C° 0.3 mm 0 mps 736 mmHg 96%
    04:00 +11°C° 0.3 mm 0 mps 736 mmHg 96%
    05:00 +13°C° 0.1 mm 0 mps 736 mmHg 92%
    06:00 +15°C° 0.1 mm 0 mps 737 mmHg 88%
    07:00 +19°C° 0.1 mm 1 mps 737 mmHg 84%
    08:00 +20°C° 0.2 mm 1 mps 737 mmHg 77%
    09:00 +20°C° 0.2 mm 2 mps 737 mmHg 71%
    10:00 +23°C° 0.2 mm 2 mps 737 mmHg 64%
    11:00 +22°C° 0.2 mm 3 mps 737 mmHg 62%
    12:00 +24°C° 0.2 mm 3 mps 737 mmHg 59%
    13:00 +23°C° 0.2 mm 4 mps 736 mmHg 57%
    14:00 +23°C° 0.4 mm 4 mps 736 mmHg 60%
    15:00 +24°C° 0.4 mm 3 mps 736 mmHg 62%
    16:00 +22°C° 0.4 mm 3 mps 736 mmHg 65%
    17:00 +21°C° 0.4 mm 3 mps 736 mmHg 72%
    18:00 +20°C° 0.4 mm 3 mps 736 mmHg 79%
    19:00 +18°C° 0.4 mm 2 mps 736 mmHg 86%
    20:00 +17°C° 0.2 mm 2 mps 736 mmHg 88%
    21:00 +16°C° 0.2 mm 2 mps 737 mmHg 90%
    22:00 +15°C° 0.2 mm 2 mps 737 mmHg 92%
    23:00 +15°C° 0.1 mm 2 mps 737 mmHg 93%

    Day after tomorrow, 24 May, Wednesday

    Time Temperature Precipitation Wind Pressure Humidity
    00:00 +14°C° 0.1 mm 3 mps 737 mmHg 93%
    01:00 +13°C° 0.1 mm 3 mps 737 mmHg 93%
    02:00 +13°C° 0 mm 3 mps 737 mmHg 93%
    03:00 +13°C° 0 mm 3 mps 736 mmHg 93%
    04:00 +13°C° 0 mm 3 mps 736 mmHg 93%
    05:00 +14°C° 0.1 mm 3 mps 736 mmHg 92%
    06:00 +15°C° 0.1 mm 4 mps 737 mmHg 90%
    07:00 +15°C° 0.1 mm 4 mps 737 mmHg 89%
    08:00 +17°C° 0.2 mm 4 mps 737 mmHg 87%
    09:00 +17°C° 0.2 mm 4 mps 737 mmHg 85%
    10:00 +17°C° 0.2 mm 4 mps 737 mmHg 84%
    11:00 +17°C° 0.1 mm 5 mps 737 mmHg 75%
    12:00 +19°C° 0.1 mm 5 mps 737 mmHg 66%
    13:00 +20°C° 0.1 mm 6 mps 737 mmHg 57%
    14:00 +19°C° 0.1 mm 5 mps 737 mmHg 59%
    15:00 +19°C° 0.1 mm 5 mps 737 mmHg 61%
    16:00 +17°C° 0.1 mm 5 mps 736 mmHg 63%
    17:00 +17°C° 0.5 mm 4 mps 737 mmHg 71%
    18:00 +14°C° 0.5 mm 4 mps 737 mmHg 78%
    19:00 +13°C° 0.5 mm 3 mps 737 mmHg 86%
    20:00 +12°C° 0.5 mm 3 mps 737 mmHg 89%
    21:00 +12°C° 0.5 mm 2 mps 738 mmHg 92%
    22:00 +10°C° 0.5 mm 2 mps 738 mmHg 96%
    23:00 +10°C° 0.3 mm 2 mps 738 mmHg 96%

    25 May, Thursday

    Time Temperature Precipitation Wind Pressure Humidity
    00:00 +9°C° 0.3 mm 2 mps 738 mmHg 96%
    01:00 +9°C° 0.3 mm 2 mps 738 mmHg 96%
    02:00 +9°C° 0 mm 2 mps 738 mmHg 96%
    03:00 +9°C° 0 mm 2 mps 738 mmHg 96%
    04:00 +8°C° 0 mm 2 mps 738 mmHg 96%
    05:00 +9°C° 0 mm 3 mps 738 mmHg 95%
    06:00 +10°C° 0 mm 3 mps 738 mmHg 93%
    07:00 +11°C° 0 mm 3 mps 739 mmHg 91%
    08:00 +12°C° 0.1 mm 4 mps 739 mmHg 86%
    09:00 +13°C° 0.1 mm 4 mps 739 mmHg 80%
    10:00 +14°C° 0.1 mm 5 mps 739 mmHg 75%
    11:00 +14°C° 0.2 mm 4 mps 739 mmHg 77%
    12:00 +14°C° 0.2 mm 4 mps 738 mmHg 79%
    13:00 +14°C° 0.2 mm 3 mps 738 mmHg 81%
    14:00 +15°C° 0.2 mm 4 mps 738 mmHg 78%
    15:00 +17°C° 0.2 mm 4 mps 738 mmHg 75%
    16:00 +17°C° 0.2 mm 4 mps 738 mmHg 73%
    17:00 +17°C° 0.2 mm 3 mps 738 mmHg 78%
    18:00 +16°C° 0.2 mm 3 mps 738 mmHg 83%
    19:00 +15°C° 0.2 mm 2 mps 737 mmHg 88%
    20:00 +14°C° 0.2 mm 2 mps 738 mmHg 91%
    21:00 +14°C° 0.2 mm 2 mps 738 mmHg 93%
    22:00 +13°C° 0.2 mm 2 mps 738 mmHg 96%
    23:00 +13°C° 0.5 mm 2 mps 738 mmHg 96%

    26 May, Friday

    Time Temperature Precipitation Wind Pressure Humidity
    00:00 +13°C° 0.5 mm 2 mps 738 mmHg 96%
    01:00 +13°C° 0.5 mm 2 mps 737 mmHg 96%
    02:00 +13°C° 1 mm 2 mps 737 mmHg 97%
    03:00 +13°C° 1 mm 2 mps 737 mmHg 97%
    04:00 +13°C° 1 mm 2 mps 737 mmHg 97%
    05:00 +13°C° 0.8 mm 2 mps 737 mmHg 97%
    06:00 +14°C° 0.8 mm 2 mps 737 mmHg 97%
    07:00 +14°C° 0.8 mm 2 mps 737 mmHg 96%
    08:00 +14°C° 0.4 mm 2 mps 737 mmHg 95%
    09:00 +15°C° 0.4 mm 2 mps 738 mmHg 93%
    10:00 +16°C° 0.4 mm 3 mps 738 mmHg 92%
    11:00 +16°C° 0.4 mm 3 mps 738 mmHg 88%
    12:00 +17°C° 0.4 mm 3 mps 737 mmHg 85%
    13:00 +18°C° 0.4 mm 3 mps 737 mmHg 81%
    14:00 +18°C° 0.4 mm 3 mps 737 mmHg 81%
    15:00 +18°C° 0.4 mm 3 mps 737 mmHg 80%
    16:00 +18°C° 0.4 mm 2 mps 737 mmHg 80%
    17:00 +17°C° 0.2 mm 2 mps 738 mmHg 83%
    18:00 +16°C° 0.2 mm 2 mps 738 mmHg 86%
    19:00 +15°C° 0.2 mm 1 mps 738 mmHg 89%
    20:00 +13°C° 0 mm 1 mps 738 mmHg 90%
    21:00 +12°C° 0 mm 1 mps 739 mmHg 91%
    22:00 +10°C° 0 mm 1 mps 739 mmHg 93%
    23:00 +9°C° 0 mm 1 mps 739 mmHg 93%

    27 May, Saturday

    Time Temperature Precipitation Wind Pressure Humidity
    00:00 +9°C° 0 mm 1 mps 739 mmHg 93%
    01:00 +8°C° 0 mm 1 mps 739 mmHg 93%
    02:00 +8°C° 0 mm 1 mps 740 mmHg 93%
    03:00 +8°C° 0 mm 1 mps 740 mmHg 93%
    04:00 +7°C° 0 mm 1 mps 740 mmHg 93%
    05:00 +10°C° 0 mm 1 mps 740 mmHg 88%
    06:00 +12°C° 0 mm 1 mps 740 mmHg 84%
    07:00 +14°C° 0 mm 1 mps 741 mmHg 80%
    08:00 +16°C° 0 mm 2 mps 741 mmHg 71%
    09:00 +17°C° 0 mm 2 mps 741 mmHg 63%
    10:00 +19°C° 0 mm 2 mps 740 mmHg 54%
    11:00 +19°C° 0 mm 3 mps 740 mmHg 52%
    12:00 +20°C° 0 mm 3 mps 740 mmHg 49%
    13:00 +21°C° 0 mm 3 mps 740 mmHg 46%
    14:00 +21°C° 0 mm 3 mps 740 mmHg 47%
    15:00 +21°C° 0 mm 3 mps 740 mmHg 48%
    16:00 +20°C° 0 mm 3 mps 740 mmHg 49%
    17:00 +18°C° 0 mm 3 mps 740 mmHg 57%
    18:00 +17°C° 0 mm 2 mps 740 mmHg 66%
    19:00 +15°C° 0 mm 2 mps 740 mmHg 75%
    20:00 +13°C° 0 mm 2 mps 740 mmHg 78%
    21:00 +10°C° 0 mm 2 mps 740 mmHg 82%
    22:00 +9°C° 0 mm 1 mps 741 mmHg 86%
    23:00 +9°C° 0 mm 1 mps 741 mmHg 86%
    Show more